Вернуться в каталог

KUIPER-00230

АктивенСвязьVLEO
NORAD 68579·PAYLOAD·🇺🇸 United States

Запущен Apr 4, 2026 с Cape Canaveral Space Force Station

Loading…

Ближайшие Пролёты (ближайшие 24 часа)

TLE

СвежийSource: CelesTrak SupGP

Эпоха: Sep 14, 2026, 21:54 UTC

1 68579C 26072G   26257.91292824 -.01258500  00000+0 -13167+0 0  2577
2 68579  51.8976 106.2923 0004334 350.5073 325.1629 14.90404434    15

Отслеживайте KUIPER-00230 в реальном времени с AllMySat

Download on the App Store